Regional Weather Roundup
Issued by NWS Green Bay, WI

Home | Current Version | Previous Version | Graphics & Text | Print | Product List | Glossary Off
Versions: 1 2 3 4 5 6 7 8 9 10 11 12 13 14 15 16 17 18 19 20 21 22 23 24 25 26 27 28 29 30 31 32 33 34 35 36 37 38 39 40 41 42 43 44 45 46 47 48 49 50

676
ASUS43 KGRB 231011
RWRGRB

NORTH-CENTRAL AND NORTHEAST WISCONSIN REGIONAL WEATHER ROUNDUP
NATIONAL WEATHER SERVICE GREEN BAY WI
400 AM CST MON JAN 23 2017

WIZ005-009-010>012-018-019-231100-
NORTH CENTRAL WISCONSIN

CITY           SKY/WX    TMP DP  RH WIND       PRES   REMARKS
IRONWOOD       CLOUDY    34  33  96 SW5       29.75S
MANITOWISH WTR CLOUDY    32  32 100 CALM      29.73S FOG
ARBOR VITAE    CLOUDY    34  33  97 CALM      29.73S
EAGLE RIVER    CLOUDY    32  32 100 W6        29.72S
LAND O LAKES   FOG       33  33 100 W3        29.74S VSB 1
RHINELANDER    CLOUDY    34  33  96 NW6       29.73S
PHILLIPS       LGT RAIN  32  32 100 CALM      29.74F
ANTIGO         CLOUDY    32  32 100 NW3       29.72S FOG
TOMAHAWK       CLOUDY    32  32  99 NW3       29.73F
MERRILL        CLOUDY    34  34 100 CALM        N/A
$$

WIZ013-073-231100-
NORTHEAST WISCONSIN

CITY           SKY/WX    TMP DP  RH WIND       PRES   REMARKS
IRON MOUNTAIN  CLOUDY    35  32  88 CALM      29.71S
MARINETTE      NOT AVBL
OCONTO         CLOUDY    36  35  99 CALM      29.72S
$$

WIZ017-030-035>037-045-231100-
CENTRAL WISCONSIN

CITY           SKY/WX    TMP DP  RH WIND       PRES   REMARKS
MEDFORD        FOG       32  32 100 W5        29.74S VSB 1/2
WAUSAU         CLOUDY    34  33  96 NW6       29.72S
MOSINEE        CLOUDY    32  32 100 NW5       29.75S
MARSHFIELD     CLOUDY    33  32  96 NW7       29.73S FOG
WISC RAPIDS    CLOUDY    34  34 100 NW6       29.76S FOG
STEVENS POINT  CLOUDY    33  33 100 CALM      29.75R
WAUPACA        CLOUDY    37  37  97 CALM      29.74S FOG
SHAWANO        CLOUDY    37  36  94 CALM      29.73F
CLINTONVILLE   CLOUDY    36  34  93 NW6       29.73S
WAUTOMA        CLOUDY    35  34  96 NW6       29.75S
$$

WIZ038-039-048-051-231100-
FOX VALLEY

CITY           SKY/WX    TMP DP  RH WIND       PRES   REMARKS
NWS GREEN BAY  CLOUDY    37  37 100 NW6       29.73R FOG
APPLETON       FOG       34  34 100 NW7       29.71S VSB 1/2
OSHKOSH        CLOUDY    35  35 100 NW6       29.72F FOG
FOND DU LAC    LGT SNOW  36  33  89 NW7       29.72S VSB 1
$$

WIZ022-050-052-231100-
EAST CENTRAL WISCONSIN

CITY           SKY/WX    TMP DP  RH WIND       PRES   REMARKS
EPHRAIM        FOG       34  34 100 NW3       29.70S VSB 1/2
WASHINGTON ISL FOG       33  33 100 N3        29.70F VSB 1/2
STURGEON BAY   FOG       35  35 100 NW5       29.72S VSB 1/2
MANITOWOC      CLOUDY    36  36 100 MISG      29.72S FOG
SHEBOYGAN      CLOUDY    36  35  96 NW5       29.71S FOG
$$

LMZ563-521-522-541>543-231100-
LAKESHORE

STATION/POSITION TIME  TEMP    WIND        PRES    VSBY  WAVE
                       AIR SEA DIR/SP/G                  HT/PER
                 (UTC) (F)     (DEG/KT/KT) (MB)    (MI)  (FT/S)
SHEBOYGAN LKSHOR 1000   37     310/  8/  9 1006.5R
KEWAUNEE LKSHORE 0948   36     310/  3/  5 1005.9S
NORTHPORT PIER   0940   35     300/  6/  8 1006.1F
SISTER BAY LKSHO 0920   33        CALM       N/A
MENOMINEE LKSHOR 0948          310/  8/  9 1005.6F
$$




USA.gov is the U.S. government's official web portal to all federal, state and local government web resources and services.